{"data":{"norad_id":68181,"epoch":"2026-05-24T15:17:49.998336Z","epoch_age_seconds":96521,"freshness":"FRESH","line1":"1 68181U 26050Q   26144.63738424  .00045867  00000+0  11789-2 0  9998","line2":"2 68181  53.1585 273.8026 0001113  70.4772 289.6352 15.38855205 12318","mean_motion":15.38855205,"eccentricity":0.0001113,"inclination_deg":53.1585,"raan_deg":273.8026,"arg_perigee_deg":70.4772,"mean_anomaly_deg":289.6352,"bstar":0.0011789,"rev_number":1231,"period_min":93.576055454808,"perigee_km":448.73347451358,"apogee_km":450.25330503834,"semimajor_km":6827.630389776,"source":"CELESTRAK","updated_at":"2026-05-25T13:38:21.855214Z"}}